GLO1436 SBSP-SBGO

Flight info

Callsign GLO1436
Flight time N/A
Altitude 38000
Route GERTU UZ25 CORVO
Aircraft B737/M-SDE2E3FGHIRWXY/LB1

Departure

Time 2026-05-05 17:18
Airport Congonhas–Deputado Freitas Nobre Airport (SBSP)

Arrival

Time N/A
Airport Santa Genoveva International Airport (SBGO)
Time Latitude Longitude Altitude Speed Heading
2026-05-05 17:10 -23.62511 -46.65966 2626 ft 0 kts 237°
2026-05-05 17:12 -23.62498 -46.65944 2599 ft 4 kts 246°
2026-05-05 17:12 -23.62494 -46.65923 2600 ft 4 kts 320°
2026-05-05 17:12 -23.62511 -46.65910 2600 ft 1 kts 327°
2026-05-05 17:13 -23.62512 -46.65909 2600 ft 0 kts 327°
2026-05-05 17:15 -23.62492 -46.65913 2600 ft 8 kts 348°
2026-05-05 17:15 -23.62424 -46.65929 2600 ft 11 kts 346°
2026-05-05 17:16 -23.62359 -46.65969 2599 ft 11 kts 326°
2026-05-05 17:16 -23.62298 -46.66011 2599 ft 10 kts 330°
2026-05-05 17:16 -23.62236 -46.66047 2599 ft 10 kts 336°
2026-05-05 17:16 -23.62177 -46.66085 2595 ft 10 kts 327°
2026-05-05 17:17 -23.62121 -46.66124 2597 ft 9 kts 327°
2026-05-05 17:17 -23.62056 -46.66132 2595 ft 11 kts 30°
2026-05-05 17:17 -23.62060 -46.66066 2592 ft 11 kts 140°
2026-05-05 17:17 -23.62273 -46.65921 2599 ft 80 kts 148°
2026-05-05 17:18 -23.62980 -46.65418 2620 ft 159 kts 146°
2026-05-05 17:18 -23.63975 -46.64736 3374 ft 171 kts 148°
2026-05-05 17:18 -23.64992 -46.64143 4561 ft 160 kts 172°
2026-05-05 17:18 -23.66053 -46.64234 5569 ft 153 kts 188°
2026-05-05 17:19 -23.67218 -46.64369 6040 ft 188 kts 186°
2026-05-05 17:19 -23.68647 -46.64487 6375 ft 223 kts 184°
2026-05-05 17:19 -23.70300 -46.64594 6729 ft 250 kts 184°
2026-05-05 17:19 -23.72074 -46.64689 7430 ft 260 kts 183°
2026-05-05 17:20 -23.73936 -46.64790 7964 ft 278 kts 186°
2026-05-05 17:20 -23.75797 -46.65488 8959 ft 282 kts 215°
2026-05-05 17:20 -23.77121 -46.67049 10120 ft 287 kts 241°
2026-05-05 17:20 -23.77680 -46.69148 10845 ft 304 kts 267°
2026-05-05 17:21 -23.77719 -46.71549 11366 ft 324 kts 259°
2026-05-05 17:21 -23.78570 -46.73833 11869 ft 328 kts 239°
2026-05-05 17:21 -23.79875 -46.75893 11922 ft 332 kts 231°
2026-05-05 17:22 -23.82705 -46.79926 12644 ft 338 kts 234°
2026-05-05 17:22 -23.84045 -46.82040 13731 ft 339 kts 236°
2026-05-05 17:22 -23.85368 -46.84194 14669 ft 343 kts 237°
2026-05-05 17:22 -23.86348 -46.86562 15534 ft 347 kts 257°
2026-05-05 17:23 -23.86430 -46.89209 16406 ft 353 kts 277°
2026-05-05 17:23 -23.85639 -46.91763 17240 ft 360 kts 297°
2026-05-05 17:23 -23.84383 -46.94154 18081 ft 366 kts 300°
2026-05-05 17:23 -23.83039 -46.96549 18790 ft 373 kts 300°
2026-05-05 17:24 -23.81670 -46.98975 19541 ft 376 kts 300°
2026-05-05 17:24 -23.80326 -47.01388 20343 ft 378 kts 300°
2026-05-05 17:24 -23.78969 -47.03861 21114 ft 381 kts 299°
2026-05-05 17:24 -23.77608 -47.06364 21872 ft 385 kts 299°
2026-05-05 17:25 -23.76235 -47.08892 22616 ft 389 kts 299°
2026-05-05 17:25 -23.75236 -47.10575 23084 ft 394 kts 307°
2026-05-05 17:25 -23.72360 -47.13037 23963 ft 405 kts 333°
2026-05-05 17:25 -23.69648 -47.13928 24580 ft 410 kts 347°
2026-05-05 17:26 -23.66823 -47.14503 25182 ft 414 kts 348°
2026-05-05 17:26 -23.63968 -47.15059 25750 ft 419 kts 347°
2026-05-05 17:26 -23.61090 -47.15658 26331 ft 423 kts 347°
2026-05-05 17:26 -23.58191 -47.16288 26907 ft 427 kts 346°
2026-05-05 17:27 -23.55268 -47.16931 27477 ft 430 kts 346°
2026-05-05 17:27 -23.52320 -47.17581 28053 ft 434 kts 346°
2026-05-05 17:27 -23.49346 -47.18236 28579 ft 438 kts 346°
2026-05-05 17:27 -23.46348 -47.18894 29155 ft 441 kts 345°
2026-05-05 17:28 -23.43328 -47.19556 29687 ft 445 kts 345°
2026-05-05 17:28 -23.40314 -47.20216 30185 ft 449 kts 345°
2026-05-05 17:28 -23.37239 -47.20888 30619 ft 452 kts 345°
2026-05-05 17:28 -23.34142 -47.21565 31042 ft 455 kts 345°
2026-05-05 17:29 -23.31025 -47.22246 31457 ft 458 kts 345°
2026-05-05 17:29 -23.27887 -47.22932 31818 ft 462 kts 345°
2026-05-05 17:29 -23.24724 -47.23622 32189 ft 465 kts 345°
2026-05-05 17:29 -23.21540 -47.24316 32557 ft 468 kts 345°
2026-05-05 17:30 -23.18337 -47.25013 32975 ft 470 kts 344°
2026-05-05 17:30 -23.15135 -47.25710 33494 ft 468 kts 344°
2026-05-05 17:30 -23.11947 -47.26402 34047 ft 466 kts 344°
2026-05-05 17:30 -23.08763 -47.27094 34482 ft 466 kts 344°
2026-05-05 17:31 -23.05588 -47.27785 34789 ft 468 kts 343°
2026-05-05 17:31 -23.02382 -47.28483 35062 ft 470 kts 343°
2026-05-05 17:31 -22.99175 -47.29180 35402 ft 470 kts 343°
2026-05-05 17:31 -22.95969 -47.29876 35765 ft 470 kts 343°
2026-05-05 17:32 -22.92762 -47.30572 36093 ft 470 kts 343°
2026-05-05 17:32 -22.89548 -47.31270 36370 ft 472 kts 343°
2026-05-05 17:32 -22.86317 -47.31971 36666 ft 473 kts 343°
2026-05-05 17:32 -22.83083 -47.32672 36960 ft 473 kts 343°
2026-05-05 17:33 -22.79854 -47.33371 37226 ft 475 kts 343°
2026-05-05 17:33 -22.76655 -47.34064 37511 ft 475 kts 342°
2026-05-05 17:33 -22.73413 -47.34765 37826 ft 475 kts 342°
2026-05-05 17:33 -22.70171 -47.35467 38100 ft 476 kts 342°
2026-05-05 17:34 -22.67017 -47.36438 38307 ft 466 kts 328°
2026-05-05 17:34 -22.64309 -47.38234 38559 ft 451 kts 314°
2026-05-05 17:34 -22.61845 -47.40317 38876 ft 449 kts 313°
2026-05-05 17:34 -22.59406 -47.42428 39084 ft 449 kts 313°
2026-05-05 17:35 -22.56961 -47.44534 39347 ft 449 kts 313°
2026-05-05 17:35 -22.54501 -47.46618 39648 ft 447 kts 313°
2026-05-05 17:35 -22.52046 -47.48674 39953 ft 446 kts 314°
2026-05-05 17:35 -22.49591 -47.50719 40159 ft 446 kts 314°
2026-05-05 17:36 -22.47111 -47.52783 40132 ft 449 kts 314°
2026-05-05 17:36 -22.41807 -47.56406 40132 ft 468 kts 336°
2026-05-05 17:37 -22.35317 -47.57697 40139 ft 476 kts 345°
2026-05-05 17:37 -22.29870 -47.58507 40150 ft 475 kts 345°
2026-05-05 17:38 -22.23337 -47.59517 40145 ft 473 kts 344°
2026-05-05 17:38 -22.16828 -47.60589 40157 ft 473 kts 343°
2026-05-05 17:39 -22.10314 -47.61687 40164 ft 474 kts 343°
2026-05-05 17:39 -22.03783 -47.62787 40163 ft 476 kts 343°
2026-05-05 17:40 -21.97266 -47.63880 40164 ft 478 kts 343°
2026-05-05 17:40 -21.90674 -47.64983 40165 ft 480 kts 343°
2026-05-05 17:41 -21.84054 -47.66089 40156 ft 482 kts 344°
2026-05-05 17:41 -21.77412 -47.67197 40130 ft 484 kts 344°
2026-05-05 17:42 -21.70750 -47.68308 40130 ft 485 kts 344°
2026-05-05 17:42 -21.64083 -47.69420 40128 ft 485 kts 344°
2026-05-05 17:43 -21.57420 -47.70526 40128 ft 484 kts 344°
2026-05-05 17:43 -21.50765 -47.71619 40116 ft 484 kts 344°
2026-05-05 17:44 -21.44117 -47.72710 40134 ft 483 kts 344°
2026-05-05 17:44 -21.37465 -47.73802 40142 ft 483 kts 344°
2026-05-05 17:45 -21.30832 -47.74890 40147 ft 482 kts 344°
2026-05-05 17:45 -21.24192 -47.75979 40145 ft 482 kts 344°
2026-05-05 17:46 -21.17568 -47.77065 40148 ft 482 kts 344°
2026-05-05 17:46 -21.10939 -47.78110 40163 ft 482 kts 345°
2026-05-05 17:47 -21.04269 -47.79012 40108 ft 484 kts 346°
2026-05-05 17:47 -20.97579 -47.79894 40123 ft 484 kts 345°
2026-05-05 17:48 -20.90894 -47.80794 40117 ft 484 kts 345°
2026-05-05 17:48 -20.84198 -47.81706 40122 ft 485 kts 345°
2026-05-05 17:49 -20.77495 -47.82621 40112 ft 486 kts 345°
2026-05-05 17:49 -20.70782 -47.83535 40122 ft 487 kts 345°
2026-05-05 17:50 -20.64047 -47.84450 40116 ft 488 kts 345°
2026-05-05 17:50 -20.57309 -47.85365 40107 ft 488 kts 345°
2026-05-05 17:51 -20.50575 -47.86278 40115 ft 488 kts 345°
2026-05-05 17:51 -20.43841 -47.87191 40121 ft 488 kts 345°
2026-05-05 17:52 -20.37101 -47.88105 40107 ft 488 kts 345°
2026-05-05 17:52 -20.30362 -47.89017 40109 ft 488 kts 345°
2026-05-05 17:53 -20.24336 -47.89832 40104 ft 488 kts 345°